TimeMDT,TemperatureF,Dew PointF,Humidity,Sea Level PressureIn,VisibilityMPH,Wind Direction,Wind SpeedMPH,Gust SpeedMPH,PrecipitationIn,Events,Conditions,WindDirDegrees,DateUTC
12:15 AM,24.8,19.4,80,29.80,10.0,North,12.7,-,N/A,,Overcast,10,2013-04-15 06:15:00
12:35 AM,24.8,19.4,80,29.80,10.0,North,12.7,-,N/A,,Overcast,360,2013-04-15 06:35:00
1:15 AM,23.0,19.4,86,29.80,10.0,North,11.5,-,N/A,,Overcast,360,2013-04-15 07:15:00
1:35 AM,23.0,19.4,86,29.80,10.0,North,13.8,-,N/A,,Overcast,10,2013-04-15 07:35:00
1:55 AM,21.2,19.4,93,29.79,10.0,North,13.8,-,N/A,,Overcast,10,2013-04-15 07:55:00
2:15 AM,21.2,17.6,86,29.80,10.0,NNE,11.5,-,N/A,,Overcast,20,2013-04-15 08:15:00
2:35 AM,21.2,17.6,86,29.79,10.0,North,11.5,-,N/A,,Overcast,10,2013-04-15 08:35:00
3:15 AM,21.2,17.6,86,29.79,10.0,NNE,11.5,-,N/A,,Overcast,20,2013-04-15 09:15:00
3:55 AM,21.2,17.6,86,29.79,10.0,North,13.8,-,N/A,,Overcast,10,2013-04-15 09:55:00
4:15 AM,19.4,17.6,93,29.79,10.0,North,12.7,-,N/A,,Overcast,360,2013-04-15 10:15:00
4:35 AM,19.4,17.6,93,29.80,10.0,North,11.5,-,N/A,,Overcast,360,2013-04-15 10:35:00
4:55 AM,19.4,15.8,86,29.81,9.0,North,11.5,-,N/A,,Overcast,360,2013-04-15 10:55:00
5:15 AM,19.4,15.8,86,29.81,5.0,North,10.4,-,N/A,,Overcast,360,2013-04-15 11:15:00
5:36 AM,19.4,15.8,86,29.81,4.0,North,9.2,-,N/A,,Overcast,360,2013-04-15 11:36:00
5:55 AM,19.4,15.8,86,29.81,5.0,North,6.9,-,N/A,,Overcast,10,2013-04-15 11:55:00
6:15 AM,19.4,14.0,80,29.82,10.0,North,10.4,-,N/A,,Overcast,10,2013-04-15 12:15:00
6:35 AM,19.4,14.0,80,29.83,10.0,North,9.2,-,N/A,,Overcast,10,2013-04-15 12:35:00
6:55 AM,17.6,14.0,86,29.83,10.0,NNE,11.5,-,N/A,,Overcast,20,2013-04-15 12:55:00
7:15 AM,17.6,12.2,79,29.84,10.0,NNE,15.0,-,N/A,,Overcast,20,2013-04-15 13:15:00
7:35 AM,17.6,14.0,86,29.84,10.0,North,15.0,19.6,N/A,,Overcast,10,2013-04-15 13:35:00
7:55 AM,17.6,12.2,79,29.85,10.0,North,17.3,-,N/A,,Overcast,10,2013-04-15 13:55:00
8:15 AM,17.6,14.0,86,29.85,10.0,North,13.8,21.9,N/A,,Overcast,360,2013-04-15 14:15:00
8:35 AM,17.6,14.0,86,29.85,10.0,North,13.8,-,N/A,,Overcast,360,2013-04-15 14:35:00
8:55 AM,17.6,14.0,86,29.86,10.0,North,16.1,-,N/A,,Overcast,360,2013-04-15 14:55:00
9:15 AM,19.4,14.0,80,29.86,10.0,North,12.7,20.7,N/A,,Overcast,360,2013-04-15 15:15:00
9:35 AM,19.4,14.0,80,29.86,10.0,North,16.1,20.7,N/A,,Overcast,10,2013-04-15 15:35:00
9:55 AM,19.4,14.0,80,29.87,10.0,North,16.1,-,N/A,,Overcast,10,2013-04-15 15:55:00
10:15 AM,19.4,15.8,86,29.87,10.0,North,15.0,-,N/A,,Overcast,10,2013-04-15 16:15:00
10:35 AM,21.2,15.8,80,29.87,10.0,North,13.8,-,N/A,,Overcast,10,2013-04-15 16:35:00
10:55 AM,21.2,15.8,80,29.88,10.0,North,13.8,-,N/A,,Overcast,360,2013-04-15 16:55:00
11:35 AM,21.2,15.8,80,29.88,10.0,NNE,15.0,18.4,N/A,,Overcast,20,2013-04-15 17:35:00
12:15 PM,23.0,17.6,80,29.88,10.0,North,16.1,-,N/A,,Overcast,10,2013-04-15 18:15:00
12:35 PM,24.8,17.6,74,29.88,10.0,NNE,16.1,23.0,N/A,,Overcast,20,2013-04-15 18:35:00
12:55 PM,24.8,17.6,74,29.88,10.0,North,16.1,-,N/A,,Overcast,10,2013-04-15 18:55:00
1:15 PM,26.6,17.6,69,29.88,10.0,North,13.8,18.4,N/A,,Overcast,360,2013-04-15 19:15:00
1:35 PM,26.6,17.6,69,29.88,10.0,NNE,16.1,-,N/A,,Overcast,20,2013-04-15 19:35:00
1:55 PM,26.6,15.8,64,29.88,10.0,NNE,18.4,-,N/A,,Overcast,20,2013-04-15 19:55:00
2:15 PM,26.6,15.8,64,29.88,10.0,North,15.0,19.6,N/A,,Overcast,10,2013-04-15 20:15:00
2:35 PM,28.4,17.6,64,29.88,10.0,NNE,15.0,21.9,N/A,,Overcast,20,2013-04-15 20:35:00
2:55 PM,26.6,15.8,64,29.88,10.0,North,13.8,-,N/A,,Overcast,10,2013-04-15 20:55:00
3:15 PM,28.4,15.8,59,29.88,10.0,NNE,17.3,20.7,N/A,,Overcast,20,2013-04-15 21:15:00
3:35 PM,26.6,15.8,64,29.89,10.0,North,15.0,-,N/A,,Overcast,10,2013-04-15 21:35:00
3:55 PM,26.6,15.8,64,29.89,10.0,NNE,15.0,18.4,N/A,,Overcast,20,2013-04-15 21:55:00
4:55 PM,26.6,15.8,64,29.90,10.0,North,15.0,-,N/A,,Overcast,10,2013-04-15 22:55:00
5:15 PM,26.6,12.2,55,29.90,10.0,North,13.8,-,N/A,,Overcast,10,2013-04-15 23:15:00
5:35 PM,26.6,15.8,64,29.91,10.0,North,12.7,17.3,N/A,,Overcast,360,2013-04-15 23:35:00
5:55 PM,26.6,14.0,59,29.91,10.0,North,13.8,18.4,N/A,,Overcast,10,2013-04-15 23:55:00
6:15 PM,26.6,14.0,59,29.92,10.0,North,17.3,20.7,N/A,,Overcast,10,2013-04-16 00:15:00
6:35 PM,26.6,14.0,59,29.93,10.0,North,15.0,19.6,N/A,,Overcast,360,2013-04-16 00:35:00
6:55 PM,26.6,12.2,55,29.94,10.0,North,16.1,21.9,N/A,,Overcast,360,2013-04-16 00:55:00
7:15 PM,24.8,12.2,59,29.94,10.0,North,15.0,-,N/A,,Overcast,10,2013-04-16 01:15:00
7:35 PM,24.8,12.2,59,29.95,10.0,North,15.0,20.7,N/A,,Overcast,10,2013-04-16 01:35:00
7:55 PM,24.8,12.2,59,29.96,10.0,North,11.5,-,N/A,,Overcast,360,2013-04-16 01:55:00
8:15 PM,24.8,14.0,64,29.97,10.0,North,10.4,-,N/A,,Overcast,350,2013-04-16 02:15:00
8:35 PM,24.8,15.8,69,29.98,10.0,North,9.2,-,N/A,,Overcast,350,2013-04-16 02:35:00
8:55 PM,24.8,15.8,69,29.98,10.0,North,11.5,-,N/A,,Overcast,350,2013-04-16 02:55:00
9:15 PM,24.8,15.8,69,29.99,10.0,NNW,12.7,-,N/A,,Overcast,340,2013-04-16 03:15:00
9:35 PM,24.8,15.8,69,30.00,10.0,NNW,11.5,-,N/A,,Overcast,340,2013-04-16 03:35:00
9:55 PM,23.0,15.8,74,30.01,10.0,NNW,10.4,-,N/A,,Overcast,340,2013-04-16 03:55:00
10:35 PM,23.0,15.8,74,30.01,10.0,NNW,8.1,-,N/A,,Overcast,330,2013-04-16 04:35:00
10:55 PM,23.0,15.8,74,30.01,10.0,NNW,9.2,-,N/A,,Overcast,340,2013-04-16 04:55:00
11:15 PM,23.0,15.8,74,30.00,10.0,NNW,6.9,-,N/A,,Overcast,330,2013-04-16 05:15:00
11:35 PM,21.2,15.8,80,29.97,10.0,NNW,8.1,-,N/A,,Overcast,340,2013-04-16 05:35:00
11:55 PM,21.2,15.8,80,29.92,10.0,NNW,8.1,-,N/A,,Scattered Clouds,330,2013-04-16 05:55:00